TimeEDT,TemperatureF,Dew PointF,Humidity,Sea Level PressureIn,VisibilityMPH,Wind Direction,Wind SpeedMPH,Gust SpeedMPH,PrecipitationIn,Events,Conditions,WindDirDegrees,DateUTC
12:53 AM,63.0,57.9,84,29.79,10.0,Calm,Calm,-,N/A,,Overcast,0,2013-06-13 04:53:00
1:53 AM,63.0,57.9,84,29.76,10.0,Calm,Calm,-,N/A,,Overcast,0,2013-06-13 05:53:00
2:53 AM,62.1,57.9,86,29.73,10.0,Calm,Calm,-,N/A,,Overcast,0,2013-06-13 06:53:00
3:53 AM,62.1,57.9,86,29.69,10.0,Calm,Calm,-,0.00,Rain,Light Rain,0,2013-06-13 07:53:00
4:53 AM,61.0,57.0,87,29.66,10.0,Calm,Calm,-,0.00,,Overcast,0,2013-06-13 08:53:00
5:53 AM,64.0,55.0,73,29.63,10.0,SE,3.5,-,N/A,,Overcast,140,2013-06-13 09:53:00
6:53 AM,63.0,55.9,78,29.60,10.0,SE,3.5,-,0.00,,Overcast,140,2013-06-13 10:53:00
7:53 AM,62.1,57.9,86,29.58,5.0,ESE,4.6,-,0.02,Rain,Light Rain,120,2013-06-13 11:53:00
8:34 AM,62.6,59.0,88,29.56,4.0,SE,6.9,-,0.06,Rain,Light Rain,130,2013-06-13 12:34:00
8:53 AM,62.1,59.0,90,29.54,4.0,Calm,Calm,-,0.09,Rain,Rain,0,2013-06-13 12:53:00
9:26 AM,62.6,60.8,94,29.54,7.0,Variable,3.5,-,0.01,Rain,Light Rain,0,2013-06-13 13:26:00
9:53 AM,63.0,60.1,90,29.53,6.0,ENE,3.5,-,0.06,Rain,Light Rain,70,2013-06-13 13:53:00
10:26 AM,62.6,60.8,94,29.54,2.5,Variable,3.5,-,0.04,Rain,Rain,0,2013-06-13 14:26:00
10:41 AM,62.6,60.8,94,29.54,3.0,Variable,4.6,-,0.06,Rain,Rain,0,2013-06-13 14:41:00
10:48 AM,62.6,60.8,94,29.53,2.0,ENE,4.6,-,0.08,Rain,Rain,70,2013-06-13 14:48:00
10:49 AM,62.1,60.1,93,29.53,2.0,Variable,3.5,-,0.08,Rain,Rain,0,2013-06-13 14:49:00
10:56 AM,62.6,60.8,94,29.53,2.0,East,5.8,-,0.01,Rain,Rain,80,2013-06-13 14:56:00
11:06 AM,62.6,60.8,94,29.53,2.0,Variable,3.5,-,0.04,Rain,Rain,0,2013-06-13 15:06:00
11:11 AM,62.6,60.8,94,29.52,2.0,Variable,3.5,-,0.05,Rain,Rain,0,2013-06-13 15:11:00
11:27 AM,62.6,60.8,94,29.52,2.5,Variable,3.5,-,0.07,Rain,Light Rain,0,2013-06-13 15:27:00
11:41 AM,62.6,60.8,94,29.52,2.0,Calm,Calm,-,0.09,Rain,Light Rain,0,2013-06-13 15:41:00
11:49 AM,62.6,60.8,94,29.51,3.0,Variable,3.5,-,0.10,Rain,Light Rain,0,2013-06-13 15:49:00
11:53 AM,62.1,61.0,96,29.50,3.0,ENE,4.6,-,0.10,Rain,Light Rain,70,2013-06-13 15:53:00
12:32 PM,62.6,60.8,94,29.51,7.0,East,8.1,-,0.01,,Overcast,80,2013-06-13 16:32:00
12:53 PM,62.1,60.1,93,29.50,6.0,Variable,4.6,-,0.01,,Overcast,0,2013-06-13 16:53:00
1:10 PM,62.6,60.8,94,29.50,8.0,Variable,3.5,-,N/A,,Overcast,0,2013-06-13 17:10:00
2:41 PM,60.8,57.2,88,29.52,10.0,Variable,5.8,-,0.00,Rain,Light Rain,0,2013-06-13 18:41:00
2:53 PM,60.1,57.9,93,29.52,3.0,NNE,6.9,-,0.01,Rain,Light Rain,30,2013-06-13 18:53:00
3:11 PM,59.0,57.2,94,29.54,3.0,NNE,8.1,-,0.01,Rain,Light Rain,30,2013-06-13 19:11:00
3:40 PM,59.0,57.2,94,29.56,2.5,Variable,6.9,-,0.02,Rain,Light Rain,0,2013-06-13 19:40:00
3:53 PM,59.0,57.0,93,29.56,1.5,NNE,9.2,-,0.06,Rain,Heavy Rain,30,2013-06-13 19:53:00
4:21 PM,59.0,57.2,94,29.58,2.5,NNE,4.6,18.4,0.10,Rain,Light Rain,30,2013-06-13 20:21:00
4:30 PM,59.0,57.2,94,29.59,4.0,Variable,5.8,-,0.11,Rain,Light Rain,0,2013-06-13 20:30:00
4:40 PM,57.2,55.4,94,29.59,3.0,NNE,9.2,17.3,0.12,Rain,Light Rain,30,2013-06-13 20:40:00
4:53 PM,59.0,55.9,90,29.60,6.0,NNE,9.2,16.1,0.12,Rain,Light Rain,20,2013-06-13 20:53:00
5:35 PM,57.2,55.4,94,29.61,2.5,NNE,8.1,16.1,0.03,Rain,Light Rain,20,2013-06-13 21:35:00
5:42 PM,57.2,55.4,94,29.62,2.0,NNE,11.5,20.7,0.03,Rain,Light Rain,30,2013-06-13 21:42:00
5:53 PM,57.9,55.9,93,29.62,1.8,NNE,10.4,19.6,0.04,Rain,Light Rain,20,2013-06-13 21:53:00
6:00 PM,57.2,55.4,94,29.63,2.0,NNE,8.1,17.3,0.01,Rain,Light Rain,30,2013-06-13 22:00:00
6:09 PM,57.2,55.4,94,29.63,2.5,Variable,5.8,-,0.02,Rain,Light Rain,0,2013-06-13 22:09:00
6:15 PM,57.2,55.4,94,29.63,4.0,NNE,5.8,-,0.02,Rain,Light Rain,30,2013-06-13 22:15:00
6:23 PM,57.2,55.4,94,29.64,8.0,Variable,4.6,-,0.02,Rain,Light Rain,0,2013-06-13 22:23:00
6:53 PM,57.9,55.9,93,29.65,10.0,Variable,3.5,-,0.02,Rain,Light Rain,0,2013-06-13 22:53:00
7:22 PM,57.2,55.4,94,29.68,9.0,North,5.8,-,0.01,Rain,Light Rain,360,2013-06-13 23:22:00
7:35 PM,57.2,55.4,94,29.68,10.0,Variable,5.8,-,0.01,,Overcast,0,2013-06-13 23:35:00
7:53 PM,59.0,55.0,87,29.68,10.0,Variable,5.8,-,0.01,,Overcast,0,2013-06-13 23:53:00
8:07 PM,57.2,55.4,94,29.70,10.0,Variable,5.8,-,N/A,,Overcast,0,2013-06-14 00:07:00
8:19 PM,57.2,55.4,94,29.70,10.0,North,6.9,-,N/A,,Overcast,360,2013-06-14 00:19:00
8:30 PM,57.2,55.4,94,29.70,10.0,North,8.1,-,N/A,,Overcast,360,2013-06-14 00:30:00
8:37 PM,57.2,55.4,94,29.71,10.0,North,4.6,-,N/A,,Overcast,350,2013-06-14 00:37:00
8:53 PM,57.9,55.0,90,29.71,10.0,North,8.1,-,N/A,,Overcast,350,2013-06-14 00:53:00
9:19 PM,57.2,55.4,94,29.73,10.0,North,5.8,-,N/A,,Overcast,350,2013-06-14 01:19:00
9:53 PM,57.0,55.0,93,29.73,10.0,North,5.8,-,N/A,,Overcast,360,2013-06-14 01:53:00
10:53 PM,57.9,54.0,87,29.76,10.0,North,3.5,-,N/A,,Overcast,350,2013-06-14 02:53:00
11:53 PM,57.0,54.0,89,29.76,10.0,NNW,4.6,-,N/A,,Overcast,340,2013-06-14 03:53:00